Regional Weather Roundup
Issued by NWS

Home | Current Version | Previous Version | Text Only | Print | Product List | Glossary Off
Versions: 1 2 3 4 5 6 7 8 9 10 11 12 13 14 15 16 17 18 19 20 21 22 23 24 25 26 27 28 29 30 31 32 33 34 35 36 37 38 39 40 41 42 43 44 45 46 47 48 49 50

000
ASUS43 KLSX 222210
RWRMO

WEATHER SUMMARY FOR MISSOURI
NATIONAL WEATHER SERVICE SPRINGFIELD MO
500 PM CDT SUN APR 22 2018

NOTE: "FAIR" INDICATES FEW OR NO CLOUDS BELOW 12,000 FEET WITH NO
       SIGNIFICANT WEATHER AND/OR OBSTRUCTIONS TO VISIBILITY.
       CURRENT SKY AND/OR WEATHER CONDITIONS ARE NOT AVAILABLE FOR
       CHILLICOTHE AND FARMINGTON.

MOZ001>031-035>038-043-044-053-054-222300-
...NORTHERN AND WESTERN MISSOURI...

CITY           SKY/WX    TMP DP  RH WIND       PRES   REMARKS
KANSAS CTY INT CLOUDY    65  42  43 E10       30.07F
KANSAS C DTWN  CLOUDY    66  43  43 E10G20    30.05F
LEE`S SUMMIT   CLOUDY    63  46  54 NE13      30.06F
ST JOSEPH      SUNNY     70  43  37 E12G22    30.07F
CHILLICOTHE      N/A     68  41  37 E10G24    30.08F
KIRKSVILLE     CLOUDY    64  41  42 E12       30.11S

$$
MOZ066>068-077>081-088>096-101>105-222300-
...SOUTHWEST MISSOURI...

CITY           SKY/WX    TMP DP  RH WIND       PRES   REMARKS
SPRINGFIELD    LGT RAIN  56  54  93 NE17      29.94S
JOPLIN         PTSUNNY   58  54  86 NE13G25   29.96S
BRANSON        CLOUDY    57  52  82 NE8       29.93R

$$
MOZ032>034-039>042-045>050-055>058-069>072-222300-
...CENTRAL MISSOURI...

CITY           SKY/WX    TMP DP  RH WIND       PRES   REMARKS
COLUMBIA       CLOUDY    58  39  49 NE18G29   30.05S
JEFFERSON CITY LGT RAIN  59  44  57 NE13G18   30.03F
ROLLA          LGT RAIN  51  47  86 NE16G28   30.00F
SEDALIA        LGT RAIN  59  51  75 NE12      30.05F
WHITEMAN AFB   CLOUDY    59  49  69 NE13      30.01S
WARRENSBURG    CLOUDY    61  46  59 NE13      30.05F
OSAGE BEACH    LGT RAIN  54  52  93 NE17G24   30.01F

$$
MOZ051-052-059>065-222300-
...EAST CENTRAL MISSOURI...

CITY           SKY/WX    TMP DP  RH WIND       PRES   REMARKS
ST LOUIS INTL  LGT RAIN  58  46  64 NE5       30.06F
SPIRIT OF STL  LGT RAIN  57  46  66 NE7       30.05F
ST CHARLES     CLOUDY    59  45  59 NE10      30.06S

$$
MOZ072>076-082>087-097>100-106>115-222300-
...SOUTH CENTRAL AND SOUTHEAST MISSOURI...

CITY           SKY/WX    TMP DP  RH WIND       PRES   REMARKS
CAPE GIRARDEAU LGT RAIN  58  56  93 E14G26    29.95F
FARMINGTON     LGT RAIN  51  49  92 NE12      29.99F
POPLAR BLUFF   LGT RAIN  58  57  97 E14G24    29.89F
WEST PLAINS    RAIN      53  52  96 NE10      29.91F FOG

$$




USA.gov is the U.S. government's official web portal to all federal, state and local government web resources and services.